Flag for U.S.A. Weather past 2 weeks in Stamford, Connecticut, U.S.A.

Now
56 °F

Scattered clouds.


Feels Like: 53 °F
Forecast: 33 / 58 °F
Wind: 10 mph from Northwest

Location: Westchester County Airport

Current Time: Apr 25, 2015 at 4:40:45 PM

Latest Report: Apr 25, 2015 at 3:56 PM


Visibility: 10 mi

Pressure: 29.71 "Hg

Humidity: 30%

Dew point: 25 °F

Location of StamfordLocation

Historic Weather in Stamford — Graph

°F

Stamford temperature yesterday

Maximum temperature yesterday: 44 °F (at 2:56 PM)
Minimum temperature yesterday: 36 °F (at 5:56 AM)
Average temperature yesterday: 39 °F

Past Weeks' High & Low Weather Summary

 TemperatureHumidityPressure
High78 °F (Apr 18, 4:56 PM)100% (Apr 20, 6:56 PM)30.48 "Hg (Apr 20, 6:56 PM)
Low34 °F (Apr 12, 6:56 AM)15% (Apr 15, 5:56 PM)29.54 "Hg (Apr 22, 2:56 PM)
Average52 °F54%29.99 "Hg
* Reported Apr 10 2:56 PM — Apr 25 2:56 PM, Stamford, Weather by CustomWeather, © 2015

Note: Actual official high and low records may vary slightly from our data, if they occured in-between our weather recording intervals... More about our weather records

Advertising

Stamford weather history for previous 24 hours

 ConditionsComfort  
Time TempWeatherWind HumidityBarometerVisibility
2:56 PM
Sat, Apr 25
55 °FPassing clouds.10 mph30%29.75 "Hg10 mi
1:56 PM54 °FPassing clouds.15 mph33%29.78 "Hg10 mi
12:56 PM51 °FSunny.16 mph35%29.80 "Hg10 mi
11:56 AM48 °FSunny.14 mph39%29.84 "Hg10 mi
10:56 AM45 °FSunny.13 mph44%29.85 "Hg10 mi
9:56 AM43 °FSunny.10 mph43%29.86 "Hg10 mi
8:56 AM41 °FSunny.13 mph47%29.86 "Hg10 mi
7:56 AM38 °FSunny.14 mph53%29.88 "Hg10 mi
6:56 AM36 °FClear.9 mph57%29.89 "Hg10 mi
5:56 AM34 °FClear.7 mph59%29.89 "Hg10 mi
4:56 AM34 °FClear.5 mph59%29.89 "Hg10 mi
3:56 AM36 °FClear.10 mph54%29.87 "Hg10 mi
2:56 AM35 °FClear.9 mph54%29.87 "Hg10 mi
1:56 AM35 °FClear.9 mph54%29.88 "Hg10 mi
12:56 AM36 °FClear.10 mph52%29.90 "Hg10 mi
11:56 PM
Fri, Apr 24
36 °FClear.7 mph50%29.91 "Hg10 mi
10:56 PM36 °FPassing clouds.13 mph50%29.90 "Hg10 mi
9:56 PM37 °FPassing clouds.22 mph48%29.91 "Hg10 mi
8:56 PM38 °FPassing clouds.23 mph48%29.90 "Hg10 mi
6:56 PM41 °FScattered clouds.20 mph45%29.87 "Hg10 mi
5:56 PM42 °FPartly sunny.18 mph41%29.86 "Hg10 mi
4:56 PM43 °FPartly sunny.18 mph40%29.85 "Hg10 mi
Weather by CustomWeather, © 2015

See weather overviewHow to use our weather pages